Weather History for Chadron, NE

Change the Weather History Date:

Sunday, February 23, 2014

  Actual Average Record
Temperature  
Mean Temperature 19 °F 29 °F  
Max Temperature 22 °F 44 °F 68 °F (1958)
Min Temperature 15 °F 15 °F -13 °F (1955)
Degree Days  
Heating Degree Days 46 36  
Month to date heating degree days 1023 880  
Since 1 July heating degree days 5215 5079  
Cooling Degree Days 0 0  
Month to date cooling degree days 0 0  
Year to date cooling degree days 0 0  
Moisture  
Dew Point 15 °F    
Average Humidity 84    
Maximum Humidity 91    
Minimum Humidity 77    
Precipitation  
Precipitation T in 0.03 in 0.45 in (1924)
Month to date precipitation 0.30 0.47  
Year to date precipitation 0.50 0.83  
Sea Level Pressure  
Sea Level Pressure 30.24 in    
Wind  
Wind Speed 8 mph (ENE)    
Max Wind Speed 16 mph    
Max Gust Speed 20 mph    
Visibility 2 miles    
Events Snow    
T = Trace of Precipitation, MM = Missing Value Source: NWS Daily Summary

Daily Weather History Graph

Daily Weather History Graph

Search for Another Location

Airport:

Trip Planner

Search our weather history database for the weather conditions in past years. The results will help you decide how hot, cold, wet, or windy it might be!

Date:

Astronomy

Feb. 23, 2014 Rise Set
Actual Time 6:37 AM MST 5:34 PM MST
Civil Twilight 6:09 AM MST 6:03 PM MST
Nautical Twilight 5:36 AM MST 6:35 PM MST
Astronomical Twilight 5:03 AM MST 7:08 PM MST
Moon 1:42 AM MST 11:34 AM MST
Length of Visible Light 11h 53m
Length of Day
10h 56m
Last Quarter, 38% of the Moon is Illuminated
Feb 23
Last Quarter
Mar 1
New
Mar 8
First Quarter
Mar 16
Full
Mar 23
Last Quarter

Hourly Weather History & Observations

Time (MST) Temp. Windchill Dew Point Humidity Pressure Visibility Wind Dir Wind Speed Gust Speed Precip Events Conditions
12:11 AM 19.4 °F 12.8 °F 15.8 °F 86% 30.14 in 3.0 mi East 4.6 mph - 0.00 in Snow Light Snow
12:53 AM 19.0 °F 11.1 °F 15.1 °F 85% 30.29 in 3.0 mi North 5.8 mph - 0.00 in Snow Light Snow
12:56 AM 19.4 °F 11.5 °F 15.8 °F 86% 30.15 in 2.5 mi North 5.8 mph - 0.00 in Snow Light Snow
1:14 AM 17.6 °F 10.7 °F 15.8 °F 93% 30.16 in 1.8 mi North 4.6 mph - 0.00 in Snow Light Snow
1:53 AM 19.0 °F 12.3 °F 16.0 °F 88% 30.31 in 1.2 mi NE 4.6 mph - 0.00 in Snow Light Snow
2:23 AM 17.6 °F 9.3 °F 15.8 °F 93% 30.16 in 1.0 mi NE 5.8 mph - 0.00 in Snow Light Snow
2:31 AM 17.6 °F 9.3 °F 15.8 °F 93% 30.16 in 1.2 mi ENE 5.8 mph - 0.00 in Snow Light Snow
2:53 AM 18.0 °F 8.7 °F 14.0 °F 84% 30.31 in 2.5 mi ENE 6.9 mph - 0.00 in Snow Light Snow
3:03 AM 17.6 °F 8.2 °F 15.8 °F 93% 30.16 in 1.8 mi NE 6.9 mph - 0.00 in Snow Light Snow
3:11 AM 17.6 °F 9.3 °F 15.8 °F 93% 30.16 in 1.8 mi NNE 5.8 mph - 0.00 in Snow Light Snow
3:22 AM 17.6 °F 9.3 °F 14.0 °F 86% 30.16 in 2.0 mi NE 5.8 mph - 0.00 in Snow Light Snow
3:44 AM 17.6 °F 8.2 °F 14.0 °F 86% 30.15 in 1.8 mi ENE 6.9 mph - 0.00 in Snow Light Snow
3:51 AM 17.6 °F 8.2 °F 14.0 °F 86% 30.16 in 1.8 mi NE 6.9 mph - 0.00 in Snow Light Snow
3:53 AM 17.1 °F 7.6 °F 14.0 °F 88% 30.32 in 1.8 mi NE 6.9 mph - 0.00 in Snow Light Snow
4:09 AM 17.6 °F 9.3 °F 14.0 °F 86% 30.16 in 2.0 mi NE 5.8 mph - 0.00 in Snow Light Snow
4:53 AM 17.1 °F 5.8 °F 12.9 °F 84% 30.35 in 2.0 mi NNE 9.2 mph - 0.00 in Snow Light Snow
5:01 AM 17.6 °F 8.2 °F 12.2 °F 79% 30.18 in 2.0 mi NE 6.9 mph - 0.00 in Snow Light Snow
5:13 AM 17.6 °F 9.3 °F 12.2 °F 79% 30.18 in 2.0 mi NE 5.8 mph - 0.00 in Snow Light Snow
5:41 AM 15.8 °F 4.2 °F 12.2 °F 86% 30.19 in 1.8 mi NE 9.2 mph - 0.00 in Snow Light Snow
5:53 AM 16.0 °F 5.3 °F 12.0 °F 84% 30.36 in 1.2 mi NE 8.1 mph - 0.00 in Snow Light Snow
6:31 AM 15.8 °F 5.1 °F 12.2 °F 86% 30.19 in 2.0 mi NE 8.1 mph - 0.00 in Snow Light Snow
6:53 AM 16.0 °F 5.3 °F 12.0 °F 84% 30.36 in 1.8 mi NE 8.1 mph - 0.00 in Snow Light Snow
7:00 AM 15.8 °F 6.1 °F 12.2 °F 86% 30.19 in 2.5 mi NE 6.9 mph - 0.00 in Snow Light Snow
7:14 AM 15.8 °F 6.1 °F 12.2 °F 86% 30.20 in 1.5 mi NE 6.9 mph - 0.00 in Snow Light Snow
7:35 AM 15.8 °F 5.1 °F 12.2 °F 86% 30.20 in 1.0 mi NE 8.1 mph - 0.00 in Snow Light Snow
7:42 AM 15.8 °F 5.1 °F 12.2 °F 86% 30.21 in 0.8 mi NE 8.1 mph - 0.00 in Snow Light Snow
7:53 AM 16.0 °F 5.3 °F 12.9 °F 88% 30.38 in 1.0 mi NE 8.1 mph - 0.00 in Snow Light Snow
8:24 AM 17.6 °F 6.4 °F 12.2 °F 79% 30.22 in 0.8 mi NE 9.2 mph - 0.00 in Snow Light Snow
8:53 AM 17.1 °F 5.8 °F 12.9 °F 84% 30.39 in 1.0 mi NE 9.2 mph - 0.00 in Snow Light Snow
9:01 AM 17.6 °F 6.4 °F 14.0 °F 86% 30.22 in 0.8 mi NE 9.2 mph - 0.00 in Snow Light Snow
9:12 AM 17.6 °F 6.4 °F 14.0 °F 86% 30.22 in 1.0 mi NE 9.2 mph - 0.00 in Snow Light Snow
9:53 AM 18.0 °F 6.9 °F 14.0 °F 84% 30.39 in 1.0 mi NE 9.2 mph - 0.00 in Snow Light Snow
9:59 AM 19.4 °F 8.6 °F 14.0 °F 80% 30.22 in 0.8 mi NE 9.2 mph - 0.00 in Snow Light Snow
10:10 AM 19.4 °F 8.6 °F 14.0 °F 80% 30.22 in 0.8 mi ENE 9.2 mph - 0.00 in Snow Light Snow
10:22 AM 19.4 °F 9.5 °F 14.0 °F 80% 30.22 in 1.0 mi NE 8.1 mph - 0.00 in Snow Light Snow
10:37 AM 19.4 °F 9.5 °F 14.0 °F 80% 30.22 in 1.5 mi NE 8.1 mph - 0.00 in Snow Light Snow
10:53 AM 19.9 °F 9.3 °F 14.0 °F 78% 30.40 in 1.8 mi NE 9.2 mph - 0.00 in Snow Light Snow
11:53 AM 21.0 °F 10.6 °F 15.1 °F 78% 30.38 in 1.2 mi ENE 9.2 mph - 0.00 in Snow Light Snow
12:16 PM 21.2 °F 10.9 °F 15.8 °F 80% 30.20 in 2.0 mi ENE 9.2 mph - 0.00 in Snow Light Snow
12:34 PM 21.2 °F 11.7 °F 15.8 °F 80% 30.20 in 1.5 mi ENE 8.1 mph - 0.00 in Snow Light Snow
12:53 PM 21.0 °F 11.4 °F 16.0 °F 81% 30.37 in 0.8 mi ENE 8.1 mph - 0.00 in Snow Light Snow
1:10 PM 21.2 °F 12.6 °F 15.8 °F 80% 30.20 in 1.0 mi East 6.9 mph - 0.00 in Snow Light Snow
1:34 PM 21.2 °F 13.6 °F 15.8 °F 80% 30.20 in 0.5 mi ENE 5.8 mph - 0.00 in Snow Snow
1:49 PM 21.2 °F 11.7 °F 17.6 °F 86% 30.20 in 1.5 mi ENE 8.1 mph - 0.00 in Snow Light Snow
1:53 PM 21.9 °F 12.5 °F 17.1 °F 82% 30.36 in 1.5 mi East 8.1 mph - 0.00 in Snow Light Snow
2:53 PM 21.9 °F 12.5 °F 17.1 °F 82% 30.34 in 1.2 mi East 8.1 mph - 0.00 in Snow Light Snow
3:38 PM 21.2 °F 13.6 °F 17.6 °F 86% 30.17 in 1.2 mi ENE 5.8 mph - 0.00 in Snow Light Snow
3:53 PM 21.0 °F 13.4 °F 17.1 °F 85% 30.34 in 1.2 mi ENE 5.8 mph - 0.00 in Snow Light Snow
4:17 PM 21.2 °F 11.7 °F 17.6 °F 86% 30.17 in 0.8 mi ENE 8.1 mph - 0.00 in Snow Light Snow
4:29 PM 21.2 °F 11.7 °F 17.6 °F 86% 30.16 in 1.0 mi ENE 8.1 mph - 0.00 in Snow Light Snow
4:53 PM 21.0 °F 12.4 °F 18.0 °F 88% 30.35 in 2.0 mi ENE 6.9 mph - 0.00 in Snow Light Snow
5:29 PM 21.2 °F 11.7 °F 17.6 °F 86% 30.17 in 1.8 mi ENE 8.1 mph - 0.00 in Snow Light Snow
5:53 PM 19.9 °F 10.1 °F 17.1 °F 89% 30.35 in 2.5 mi East 8.1 mph - 0.00 in Snow Light Snow
5:56 PM 19.4 °F 9.5 °F 17.6 °F 93% 30.17 in 3.0 mi East 8.1 mph - 0.00 in Snow Light Snow
6:32 PM 19.4 °F 9.5 °F 17.6 °F 93% 30.18 in 2.5 mi East 8.1 mph - 0.00 in Snow Light Snow
6:42 PM 19.4 °F 9.5 °F 17.6 °F 93% 30.18 in 4.0 mi East 8.1 mph - 0.00 in Snow Light Snow
6:53 PM 19.9 °F 11.1 °F 17.1 °F 89% 30.36 in 5.0 mi East 6.9 mph - 0.00 in Snow Light Snow
7:04 PM 19.4 °F 11.5 °F 17.6 °F 93% 30.18 in 7.0 mi East 5.8 mph - 0.00 in   Overcast
7:22 PM 19.4 °F 12.8 °F 15.8 °F 86% 30.18 in 9.0 mi East 4.6 mph - 0.00 in   Overcast
7:53 PM 19.9 °F 11.1 °F 16.0 °F 85% 30.35 in 10.0 mi East 6.9 mph - 0.00 in   Overcast
8:28 PM 19.4 °F 12.8 °F 15.8 °F 86% 30.17 in 6.0 mi East 4.6 mph - 0.00 in Snow Light Snow
8:53 PM 19.9 °F 11.1 °F 16.0 °F 85% 30.34 in 2.5 mi East 6.9 mph - 0.00 in Snow Light Snow
9:03 PM 19.4 °F 12.8 °F 17.6 °F 93% 30.17 in 1.0 mi ESE 4.6 mph - 0.00 in Snow Light Snow
9:35 PM 19.4 °F 14.3 °F 17.6 °F 93% 30.16 in 3.0 mi ESE 3.5 mph - 0.00 in Snow Light Snow
9:53 PM 19.9 °F 13.4 °F 17.1 °F 89% 30.33 in 2.5 mi East 4.6 mph - 0.00 in Snow Light Snow
10:04 PM 19.4 °F 12.8 °F 17.6 °F 93% 30.15 in 3.0 mi East 4.6 mph - 0.00 in Snow Light Snow
10:53 PM 19.9 °F 6.7 °F 16.0 °F 85% 30.28 in 10.0 mi SSE 13.8 mph - 0.00 in   Overcast
11:01 PM 19.4 °F 6.0 °F 15.8 °F 86% 30.11 in 10.0 mi SSE 13.8 mph - N/A   Overcast
11:53 PM 19.9 °F 5.7 °F 16.0 °F 85% 30.25 in 10.0 mi SSE 16.1 mph - N/A   Overcast